Location: Blazny
(46.0612°N, 84.4033°W)
Time: 10:54:31
(UTC-04:00)

ARIANE 6 FM1 Upper Stage - Pass Details

Date: 23 September 2024
Orbit: 564 x 594 km, 62.0° (Epoch: 03 October)

Event Time Altitude Azimuth Distance (km) Brightness Sun altitude
Rises 22:32:37 0° 268° (W) 2,793 6.9 -30.3°
Reaches altitude 10° 22:35:25 10° 286° (WNW) 1,903 6.1 -30.7°
Maximum altitude 22:38:29 19° 332° (NNW) 1,430 5.3 -31.1°
Enters shadow 22:40:19 15° 3° (N) 1,620 5.3 -31.4°
